Starlink 5346

operational
NORAD ID: 56518 Int'l Des: 2023-065 Owner: SPXS Country: US Constellation: starlink
LEOCIRCULAR

关于 Starlink 5346

正在加载描述...

实时位置

正在加载3D地球...

即将过境

高度历史

Altitude vs Time

uPlot chart will show altitude changes over time

两行轨道根数

1 56518U 23065R 25353.84249723 -.00001558 00000-0 -10032-3 0 9998
2 56518 43.0032 284.2061 0000306 240.2572 119.8240 15.02541765144610
Epoch: Dec 19, 2025 • Age: 8 hours

当前状态

高度 558.7 km
速度 7.59 km/s
星下点 20.89°N, 152.34°E
发射日期 May 14, 2023
运行时间 2.6 years
类型 internet

技术详情

分类 Payload
质量 305.00 kg
干质量 290.00 kg
总质量 305.00 kg
长度 0.20 m
直径 2.80 m
跨度 9.00 m
形状 Box + pan
制造商 SPXS
平台类型 Starlink
阶段状态 In Orbit
所有者/国家 SPXS/US

大型星座

Loading constellations...